Wind_Speed
15 16 17 12 8 10 13 15 15 16 16 17 20 23 24 24 22 21 20 19 19 18 18 18 19 19 19 20 21 23 24 25 26 26 27 28 30 32 34 35 36 38 40 41
14 13 13 15 13 14 14 15 16 15 16 20 23 23 23 22 22 21 20 20 19 18 19 19 20 20 21 22 23 24 26 26 27 28 30 31 32 34 36 37 38 40 42 43
15 13 15 16 15 16 17 16 15 16 20 22 23 23 22 21 21 20 20 20 19 20 20 20 21 22 22 23 25 26 27 28 29 30 31 33 35 36 37 39 41 42 44 44
16 14 16 15 16 16 15 14 16 19 20 20 22 20 19 20 20 20 20 21 21 22 22 22 22 23 24 25 26 28 28 29 31 32 33 35 36 38 39 41 43 44 45 45
16 16 16 17 19 19 18 17 18 18 19 20 21 20 20 21 20 21 21 22 23 24 24 24 24 25 26 27 28 29 30 31 33 34 36 37 39 40 41 43 45 46 46 46
17 16 16 21 24 22 21 21 20 19 19 19 20 19 21 23 24 24 24 25 25 25 26 26 26 26 27 28 30 31 32 33 35 36 38 39 41 43 44 45 46 47 47 47
16 16 18 24 24 24 22 23 20 20 21 22 24 25 25 25 26 27 27 27 27 27 28 28 28 29 30 31 32 34 35 36 38 40 40 40 42 45 46 46 47 48 48 47
20 20 24 26 26 25 23 23 23 23 25 26 28 29 28 28 28 29 28 29 29 29 30 30 30 32 32 34 35 37 38 39 40 41 42 44 45 46 48 48 48 49 48 47
26 26 27 27 27 27 25 24 26 27 28 29 29 29 30 30 30 30 29 30 31 32 32 32 33 34 35 37 39 40 41 43 43 44 45 47 48 49 49 49 50 51 50 49
29 30 28 27 29 29 29 28 29 30 30 30 30 30 30 31 30 31 31 33 34 35 35 36 36 37 39 40 41 42 44 46 47 48 49 49 49 50 50 51 52 53 52 49
30 32 32 31 31 31 31 32 32 31 32 32 32 32 33 32 32 34 35 35 36 37 38 39 40 40 41 43 44 45 48 49 49 50 50 50 50 51 52 52 52 52 50 48
31 31 32 34 34 33 33 33 32 32 33 33 33 34 34 34 35 36 37 37 38 39 40 42 43 44 45 46 47 48 49 51 51 51 52 52 52 53 52 52 51 50 49 46
30 31 34 34 34 34 35 35 34 33 33 33 34 35 36 36 37 37 38 39 40 41 42 44 45 46 47 48 49 50 51 52 53 53 54 54 54 54 53 52 51 49 47 44
32 32 34 34 34 35 36 37 37 36 35 35 36 37 38 39 39 40 41 42 43 44 45 46 47 48 50 50 51 52 53 54 55 55 55 55 54 54 54 52 50 47 45 43
32 34 36 36 36 36 37 37 38 39 39 39 39 40 40 41 42 43 43 44 45 46 47 48 49 50 51 52 53 54 55 56 56 56 56 56 55 54 53 51 48 46 45 43
34 36 37 37 37 38 39 39 40 41 42 42 42 43 43 44 44 45 46 47 48 49 50 51 52 53 53 54 56 57 57 57 57 57 57 56 54 53 52 49 47 45 43 41
35 35 36 38 38 39 40 41 42 42 43 44 44 45 45 46 47 48 49 50 51 52 53 54 55 55 56 57 57 58 58 58 58 58 57 56 54 52 50 48 45 43 41 39
36 36 37 38 39 40 41 42 42 43 44 45 46 47 48 48 49 50 51 52 53 54 56 57 57 57 58 59 59 59 59 59 59 58 57 56 53 51 49 46 43 41 38 36
36 37 38 39 40 41 42 43 44 45 46 47 48 49 50 51 52 53 54 54 55 56 57 58 59 60 60 61 61 61 61 60 59 58 57 54 52 49 46 43 40 38 36 35
36 37 38 40 41 42 43 44 45 47 48 49 50 51 52 53 53 54 55 56 57 58 59 59 60 61 61 61 61 61 60 60 58 56 54 51 49 46 42 39 37 36 34 32
38 39 40 41 43 44 45 46 47 48 49 50 51 52 53 54 55 56 57 57 58 59 59 60 60 61 61 60 60 60 59 58 55 52 49 47 44 40 37 35 33 31 30 29
41 41 42 44 45 46 46 47 48 49 50 51 52 53 54 55 56 56 57 58 59 59 59 59 59 59 59 59 58 57 55 53 50 46 43 40 37 35 32 30 29 27 27 27
43 44 44 45 46 47 48 49 50 51 51 52 53 54 54 55 55 56 56 56 57 57 57 57 56 56 55 55 53 51 49 45 41 38 35 33 31 30 28 26 25 25 24 24
46 47 47 48 48 49 50 50 50 51 51 52 52 53 53 54 54 53 53 53 53 52 52 52 51 51 49 48 46 43 40 37 34 32 29 27 25 24 23 23 23 23 22 22
49 49 49 49 49 50 50 50 50 50 50 50 50 50 49 49 49 48 48 47 47 47 47 47 47 45 44 42 39 36 34 31 29 26 24 22 20 19 19 19 20 20 19 19
48 48 48 48 48 48 47 47 47 47 46 46 45 44 43 43 43 42 42 42 43 43 43 42 41 40 38 35 33 31 29 26 23 21 19 18 17 16 16 17 18 17 17 16
45 46 46 46 45 45 44 43 43 42 42 41 39 38 37 37 37 37 38 39 39 39 38 38 36 34 31 29 27 24 22 20 17 16 14 14 14 15 15 14 14 14 14 13
Wind_Direction
266 271 290 296 275 262 269 272 271 274 282 283 283 287 292 297 298 299 299 299 300 301 303 303 304 306 308 310 313 315 316 316 316 316 318 319 320 322 324 324 324 325 326 326
270 265 276 279 275 272 270 271 271 271 270 270 274 282 289 294 295 296 297 298 300 301 302 302 303 304 306 308 311 312 313 314 315 315 316 318 319 320 323 324 325 326 327 327
274 260 259 264 260 261 259 257 263 266 265 270 276 283 290 293 293 294 295 297 299 301 301 302 303 304 305 307 309 311 311 312 314 314 315 316 318 320 322 324 326 327 328 328
279 263 260 265 260 260 261 259 265 269 272 276 281 286 289 290 292 295 299 301 302 301 301 302 302 303 305 307 309 310 310 311 312 313 313 315 317 319 321 323 326 327 328 328
277 267 268 264 260 251 246 246 254 263 268 277 285 289 291 291 295 296 298 300 301 301 301 301 301 303 305 306 308 309 308 309 310 310 312 314 317 319 319 322 325 327 327 327
279 271 266 268 269 266 260 255 255 263 267 268 276 281 285 290 292 293 295 298 299 298 299 300 301 302 303 305 306 307 308 310 309 309 311 313 316 318 319 320 323 326 326 327
280 272 266 263 268 273 267 262 260 263 266 268 274 282 288 290 290 291 294 295 295 295 296 298 299 301 302 304 305 306 307 309 309 310 310 311 315 317 319 321 322 324 325 326
276 271 264 261 261 265 267 268 269 272 278 279 280 284 285 286 287 288 290 291 292 293 294 295 297 299 300 302 303 304 306 307 309 310 312 314 314 317 320 321 322 323 323 324
272 272 271 268 267 268 269 272 277 280 282 283 282 283 283 285 286 288 289 290 291 293 293 294 296 298 299 301 302 304 306 307 308 310 312 314 315 316 318 318 319 320 321 322
265 274 275 277 279 280 281 282 282 282 281 280 281 282 282 284 285 286 288 289 291 292 293 293 295 296 298 299 301 303 306 307 308 309 309 311 312 314 314 316 317 318 319 320
266 270 274 277 283 284 283 282 280 280 280 281 282 282 283 284 284 285 287 288 288 290 292 293 294 296 296 298 300 301 303 305 307 308 309 309 310 311 313 314 316 316 317 317
268 272 276 277 280 281 282 282 281 281 281 282 282 283 284 285 285 285 286 287 288 288 290 292 293 294 295 296 298 299 301 303 303 305 307 307 308 309 310 312 313 313 313 313
270 273 275 277 280 282 283 283 283 283 284 284 284 285 285 286 286 286 287 287 288 289 289 291 291 292 294 296 297 298 300 302 303 304 305 306 307 308 309 310 310 311 310 310
270 272 274 277 280 282 283 285 285 286 285 285 286 286 286 287 287 287 288 288 289 289 289 291 291 292 294 296 297 298 298 299 301 302 303 303 304 305 306 307 307 307 306 307
269 271 274 277 279 281 282 284 285 286 287 287 287 287 288 288 289 289 289 290 290 290 291 291 292 293 295 296 297 297 297 298 299 299 300 300 301 302 302 303 303 302 302 303
269 271 274 277 278 280 281 283 285 286 287 288 289 289 290 290 291 291 291 291 291 292 292 292 293 294 295 295 295 295 296 297 297 297 297 298 298 298 299 299 299 299 300 300
274 275 277 278 279 280 282 283 284 286 287 288 289 290 291 292 292 292 292 292 293 293 293 293 294 295 295 294 294 295 295 295 295 295 295 295 295 295 295 296 296 295 296 297
278 278 279 280 281 282 283 284 286 287 288 289 290 291 292 292 293 293 293 293 294 294 294 295 296 295 295 295 295 295 294 294 293 293 293 293 293 292 292 292 291 290 292 292
278 279 280 281 282 283 285 286 287 288 289 290 291 292 293 293 294 294 294 294 294 294 295 295 295 295 295 295 295 295 294 294 293 292 292 291 290 289 288 288 286 287 287 287
279 280 281 283 284 285 287 288 289 290 290 291 292 292 293 294 294 295 295 295 296 296 296 296 296 296 296 296 296 295 294 294 293 292 290 289 288 287 284 283 282 283 282 283
282 283 284 285 286 287 288 289 290 291 291 292 293 293 294 295 295 296 296 297 297 297 297 297 298 297 297 297 296 295 295 294 292 291 289 287 285 282 280 278 277 276 276 279
284 285 286 286 287 288 290 290 291 292 293 294 295 295 296 297 297 298 298 298 299 299 299 299 299 299 298 298 297 297 295 294 292 289 286 284 281 277 273 271 270 268 270 273
286 286 287 288 289 290 291 291 292 293 294 295 296 297 297 298 298 299 299 300 300 300 301 301 301 301 300 300 299 298 297 295 292 289 284 280 276 271 267 264 262 263 266 267
287 287 288 289 290 291 292 293 294 294 295 296 297 298 299 299 300 300 301 302 303 303 303 303 303 303 302 302 301 299 297 293 290 288 283 276 270 265 259 255 253 254 257 260
286 288 289 290 291 292 293 294 295 296 296 297 298 300 300 301 302 303 304 304 305 305 306 306 306 306 306 305 302 299 298 294 289 285 279 272 263 256 253 249 248 250 252 257
287 288 289 291 291 292 293 294 295 297 298 299 300 301 302 303 304 305 306 307 308 309 309 309 309 309 308 306 305 303 300 296 289 281 273 264 254 250 247 244 245 246 249 256
288 290 291 292 293 294 295 296 297 298 299 300 301 302 303 304 306 308 309 310 311 312 312 312 313 313 312 310 308 306 304 299 290 279 269 257 245 242 238 239 239 238 243 252
Height
5857 5856 5854 5853 5855 5858 5858 5859 5859 5858 5856 5853 5851 5851 5851 5849 5848 5847 5845 5844 5843 5841 5839 5837 5836 5834 5833 5831 5828 5826 5823 5821 5818 5814 5811 5807 5803 5798 5793 5788 5782 5777 5770 5764
5853 5853 5853 5853 5854 5854 5855 5855 5854 5854 5854 5851 5849 5848 5847 5846 5844 5843 5841 5840 5839 5837 5835 5834 5832 5830 5828 5826 5824 5821 5818 5815 5812 5808 5804 5800 5796 5792 5787 5781 5775 5769 5762 5755
5848 5849 5848 5849 5850 5850 5849 5849 5849 5849 5848 5846 5845 5844 5843 5842 5840 5838 5837 5835 5834 5832 5831 5829 5827 5825 5823 5821 5818 5816 5812 5809 5806 5802 5798 5794 5789 5784 5779 5773 5767 5761 5754 5747
5843 5844 5844 5846 5843 5843 5843 5843 5843 5843 5842 5841 5839 5839 5838 5837 5835 5834 5832 5830 5829 5827 5826 5824 5822 5820 5817 5815 5812 5809 5806 5803 5799 5795 5791 5787 5782 5777 5771 5766 5759 5752 5745 5738
5838 5838 5838 5839 5836 5837 5837 5837 5836 5836 5835 5835 5834 5834 5832 5830 5830 5828 5827 5825 5823 5821 5820 5818 5816 5814 5811 5809 5806 5803 5799 5796 5792 5788 5784 5779 5774 5769 5763 5757 5751 5744 5736 5729
5833 5833 5834 5833 5830 5830 5832 5830 5830 5829 5830 5829 5828 5828 5826 5825 5824 5822 5821 5819 5818 5816 5814 5812 5809 5807 5804 5801 5798 5795 5792 5788 5784 5780 5775 5770 5765 5759 5754 5748 5742 5735 5728 5720
5827 5828 5829 5826 5825 5825 5825 5824 5822 5822 5823 5823 5822 5821 5819 5818 5817 5816 5815 5813 5811 5809 5807 5805 5802 5799 5797 5794 5790 5787 5783 5780 5776 5771 5766 5762 5756 5751 5744 5738 5732 5725 5718 5711
5821 5822 5823 5819 5819 5819 5817 5817 5815 5815 5815 5815 5815 5814 5813 5812 5811 5809 5808 5806 5804 5802 5800 5797 5795 5792 5789 5785 5782 5778 5775 5770 5766 5762 5757 5752 5746 5741 5735 5728 5722 5715 5709 5702
5816 5816 5814 5812 5811 5811 5811 5810 5810 5810 5810 5809 5808 5808 5807 5805 5804 5802 5801 5798 5796 5793 5791 5789 5786 5783 5780 5776 5773 5769 5765 5761 5756 5751 5747 5741 5736 5730 5724 5718 5712 5706 5699 5693
5809 5807 5805 5805 5806 5805 5804 5805 5804 5804 5803 5802 5801 5800 5799 5797 5796 5794 5792 5790 5787 5785 5782 5779 5777 5774 5771 5767 5763 5759 5755 5751 5746 5741 5736 5731 5725 5720 5714 5708 5701 5695 5688 5682
5803 5801 5800 5799 5800 5799 5798 5798 5797 5796 5795 5794 5793 5791 5790 5789 5788 5785 5784 5781 5778 5775 5772 5769 5767 5764 5760 5757 5753 5749 5744 5739 5735 5730 5725 5720 5714 5709 5703 5698 5691 5684 5678 5672
5796 5795 5794 5792 5792 5791 5790 5789 5789 5788 5787 5785 5784 5782 5781 5779 5778 5776 5774 5771 5769 5766 5763 5759 5756 5753 5749 5746 5742 5738 5733 5728 5723 5718 5713 5708 5702 5697 5692 5687 5681 5675 5668 5662
5789 5788 5787 5785 5784 5783 5782 5780 5780 5779 5778 5776 5774 5773 5771 5769 5767 5765 5763 5761 5758 5755 5752 5749 5745 5741 5738 5734 5730 5726 5721 5716 5710 5705 5700 5695 5690 5684 5680 5675 5670 5664 5658 5653
5781 5780 5778 5777 5777 5775 5773 5771 5770 5769 5768 5766 5765 5763 5761 5759 5757 5754 5752 5749 5746 5743 5740 5737 5733 5729 5725 5721 5717 5712 5708 5703 5698 5693 5687 5682 5677 5672 5667 5662 5658 5653 5648 5643
5773 5771 5770 5769 5768 5766 5765 5763 5761 5759 5757 5756 5754 5752 5750 5748 5745 5743 5740 5737 5734 5730 5727 5723 5719 5716 5712 5708 5703 5698 5693 5688 5683 5678 5673 5669 5664 5658 5654 5650 5645 5641 5637 5633
5763 5762 5760 5760 5759 5757 5755 5754 5752 5749 5747 5745 5743 5741 5738 5736 5733 5730 5727 5724 5720 5716 5713 5709 5705 5701 5697 5693 5688 5683 5678 5673 5668 5663 5658 5654 5649 5645 5640 5637 5633 5629 5625 5622
5753 5753 5752 5750 5749 5747 5745 5743 5741 5739 5736 5734 5731 5729 5726 5723 5720 5717 5713 5710 5706 5702 5697 5693 5690 5686 5681 5676 5671 5666 5662 5657 5652 5647 5642 5638 5634 5630 5626 5623 5619 5616 5613 5610
5744 5743 5742 5740 5738 5737 5735 5732 5730 5728 5725 5722 5719 5716 5713 5710 5706 5703 5699 5695 5691 5686 5681 5677 5673 5668 5663 5658 5653 5649 5644 5639 5634 5630 5626 5622 5618 5615 5612 5609 5606 5603 5601 5599
5734 5732 5731 5729 5727 5725 5723 5721 5718 5716 5713 5710 5706 5703 5699 5695 5692 5688 5684 5679 5675 5670 5665 5660 5655 5650 5645 5639 5635 5629 5624 5620 5615 5611 5607 5604 5601 5599 5597 5594 5593 5591 5589 5588
5724 5722 5720 5718 5716 5714 5711 5709 5706 5703 5699 5696 5693 5689 5685 5681 5677 5672 5668 5663 5658 5653 5648 5643 5637 5632 5626 5621 5615 5610 5605 5600 5596 5592 5589 5586 5584 5582 5581 5580 5580 5579 5578 5577
5713 5711 5709 5707 5704 5701 5699 5696 5693 5689 5686 5682 5678 5674 5670 5666 5661 5656 5651 5646 5641 5636 5630 5624 5619 5613 5607 5601 5596 5590 5585 5581 5577 5573 5571 5569 5567 5566 5566 5567 5567 5567 5567 5566
5701 5699 5697 5694 5691 5689 5686 5682 5679 5675 5671 5668 5663 5659 5654 5650 5645 5640 5634 5629 5624 5618 5612 5606 5600 5594 5588 5582 5576 5571 5566 5562 5558 5556 5554 5553 5553 5553 5553 5554 5555 5556 5557 5557
5688 5686 5684 5681 5678 5675 5672 5669 5665 5661 5657 5653 5648 5644 5639 5634 5629 5624 5619 5613 5607 5601 5595 5589 5583 5577 5570 5564 5559 5554 5549 5545 5542 5540 5539 5539 5539 5540 5541 5543 5544 5546 5547 5548
5675 5673 5670 5668 5665 5661 5658 5655 5651 5647 5643 5638 5633 5628 5624 5619 5614 5608 5602 5597 5591 5585 5579 5573 5567 5561 5555 5549 5544 5539 5535 5532 5530 5528 5527 5527 5528 5529 5531 5533 5535 5537 5539 5541
5661 5659 5656 5653 5650 5647 5643 5640 5636 5632 5628 5624 5619 5614 5609 5604 5599 5594 5589 5583 5577 5572 5566 5559 5553 5547 5541 5536 5531 5527 5524 5521 5519 5518 5518 5518 5519 5520 5523 5525 5527 5530 5532 5533
5647 5645 5642 5639 5636 5633 5629 5626 5622 5618 5614 5610 5606 5601 5596 5592 5587 5582 5577 5571 5566 5560 5554 5547 5541 5536 5530 5526 5521 5518 5514 5512 5511 5510 5510 5511 5512 5514 5516 5519 5521 5524 5526 5528
5633 5630 5627 5625 5622 5619 5616 5612 5609 5605 5601 5598 5594 5590 5586 5581 5577 5572 5567 5562 5556 5550 5544 5538 5532 5527 5522 5518 5514 5511 5507 5505 5504 5504 5504 5506 5507 5509 5512 5514 5517 5519 5521 5523